Wetbulb
76.06 74.86 74.93 72.60 73.02 71.92 71.37 71.00 70.54 71.23 70.60 71.04 70.67 70.32 70.03 70.51 70.34 69.55 69.54 72.59 71.73 71.61 71.94 72.43 72.72 72.80 72.88 73.06 72.62 71.55 72.00 72.64 72.01 71.85 71.24 70.76 70.96 70.78 70.11 69.69 69.57 69.24 68.56
77.01 73.91 73.82 72.50 71.69 71.06 70.17 70.28 70.78 70.65 71.15 71.19 70.93 70.82 71.38 71.64 71.25 70.95 69.72 70.57 71.26 71.19 71.11 71.06 72.51 73.04 73.31 73.04 72.44 71.61 71.36 71.74 72.20 71.79 71.39 70.76 70.75 70.50 70.40 70.03 69.78 69.38 68.82
77.67 76.18 72.69 72.43 71.37 72.27 73.02 72.40 71.96 71.55 70.41 71.07 71.18 71.25 71.61 72.20 71.70 71.66 71.25 71.70 71.64 70.72 70.90 71.36 71.68 72.69 73.17 72.47 72.68 71.68 71.12 71.49 71.82 71.52 71.38 71.00 70.63 70.41 70.50 70.25 69.86 69.94 69.14
77.19 76.45 72.36 71.52 71.78 71.37 70.42 70.88 70.82 70.56 71.04 71.38 71.96 71.78 72.77 73.49 72.94 72.85 72.36 72.81 71.77 70.50 70.67 71.07 71.44 72.40 73.14 72.81 73.03 71.74 70.87 70.95 70.93 71.43 71.39 71.36 71.16 70.63 70.20 70.03 69.76 69.47 68.18
74.72 75.01 72.68 71.95 74.76 70.69 71.51 71.70 71.46 71.79 71.81 70.74 71.69 73.16 73.63 72.69 73.42 72.09 73.47 73.75 72.88 71.72 72.62 71.10 71.68 72.34 72.18 72.51 72.61 72.19 71.31 71.03 69.58 70.79 71.49 71.33 71.08 70.73 70.43 70.03 69.63 68.85 68.05
72.72 72.40 71.93 72.69 73.31 70.86 71.31 72.01 72.46 71.85 72.06 72.29 71.50 72.11 73.98 73.45 73.04 73.00 73.08 72.44 72.88 73.48 73.66 72.65 72.65 72.15 71.38 72.28 71.87 71.97 71.83 71.44 70.44 70.64 70.71 70.58 70.38 70.52 70.34 69.98 69.81 69.17 68.07
72.27 73.28 71.17 72.42 73.10 71.39 70.73 74.12 73.35 73.14 70.82 72.97 71.23 71.26 71.82 74.17 72.59 72.56 73.55 72.15 72.62 72.12 73.13 73.72 71.71 72.57 71.56 71.11 71.04 70.99 71.62 71.73 70.92 70.86 70.19 70.15 70.20 70.49 70.60 70.34 70.05 69.23 67.75
74.76 73.93 71.29 71.28 73.06 71.31 73.36 74.52 73.71 70.84 71.29 73.19 70.48 69.65 66.70 69.58 71.93 71.77 72.37 71.60 73.42 72.41 72.42 71.17 71.98 72.93 70.13 68.72 70.86 70.26 70.72 71.41 71.30 70.85 70.19 69.53 69.87 70.19 70.47 70.55 70.14 69.43 68.34
73.50 73.04 71.77 71.18 73.30 72.60 72.54 73.57 73.59 72.14 69.72 72.74 74.63 69.96 65.79 64.99 68.45 71.33 72.35 72.35 73.53 71.86 72.11 71.06 71.65 71.86 72.62 71.96 71.29 70.88 70.33 70.57 71.20 71.22 70.33 69.69 69.83 70.16 70.31 70.52 69.98 69.30 68.91
73.10 73.18 73.51 71.86 73.58 74.18 72.53 74.47 73.61 74.35 74.30 70.63 72.32 72.00 72.57 71.53 66.97 65.08 70.87 71.62 72.17 71.91 73.38 70.90 72.48 71.78 72.34 70.44 71.99 70.65 69.59 69.21 70.08 70.36 70.08 70.28 70.15 69.82 70.16 70.31 70.03 69.25 69.36
73.81 72.68 74.26 73.12 74.00 73.18 72.06 74.71 76.72 74.72 73.92 72.57 71.55 70.95 70.88 69.90 71.52 68.11 66.20 66.26 70.68 70.36 70.44 70.85 70.36 69.81 70.34 71.51 70.93 69.35 67.77 67.72 68.00 68.80 69.05 69.89 69.87 69.90 70.34 70.29 70.08 69.75 69.63
72.03 72.30 73.69 73.92 74.58 72.85 73.49 75.39 76.72 74.11 73.45 74.76 73.43 73.17 69.91 68.83 68.28 68.11 66.07 68.15 67.38 69.56 69.23 71.01 69.44 69.74 70.29 69.32 69.90 67.61 67.13 65.94 65.57 66.14 66.68 67.80 68.36 68.88 69.74 69.98 69.48 69.41 69.43
72.57 74.11 73.56 74.36 74.99 73.53 74.58 76.11 76.01 74.85 75.70 74.17 74.95 71.78 72.36 72.27 71.05 70.48 69.14 66.17 66.47 67.77 69.37 70.23 70.04 68.37 70.45 71.70 69.11 68.51 66.48 65.43 64.41 63.47 64.15 65.05 66.27 67.19 68.49 69.34 69.79 69.74 69.23
68.97 74.80 77.29 76.47 76.60 76.33 75.41 76.14 75.21 75.27 75.98 74.54 74.52 72.99 73.25 72.38 72.95 70.73 69.21 67.29 65.25 65.39 67.28 70.39 69.11 69.11 67.62 68.33 67.46 66.93 67.63 63.50 63.40 61.99 61.67 62.25 63.53 64.95 65.92 67.15 67.64 67.93 67.85
69.22 70.30 75.84 77.81 76.77 76.64 77.09 77.06 75.72 76.00 75.05 74.73 73.09 73.94 73.37 72.90 72.64 70.74 71.77 69.37 66.32 62.53 63.34 69.31 65.95 70.65 69.70 69.09 68.09 69.39 68.47 63.39 63.30 61.28 60.58 60.45 61.21 62.43 63.64 64.38 64.82 64.95 64.85
70.55 71.17 72.61 75.25 76.40 76.62 77.39 77.46 75.94 75.92 74.00 73.51 72.90 74.05 74.34 73.96 72.37 71.56 71.13 69.44 68.34 64.95 62.20 67.07 67.39 69.32 69.27 68.27 67.29 68.57 68.15 64.08 62.21 60.53 60.57 59.70 59.48 60.44 61.44 62.12 62.34 62.65 62.96
71.32 70.80 71.27 73.69 74.56 76.52 77.28 76.47 75.57 73.51 72.78 73.99 74.59 74.34 73.77 75.07 71.41 70.63 69.19 69.56 67.06 66.70 63.98 67.78 67.44 68.78 67.84 66.85 67.36 67.55 67.68 68.30 67.07 59.29 59.95 58.95 58.09 58.49 59.27 59.66 60.20 60.70 61.21
70.91 71.35 71.03 70.56 72.79 74.02 75.68 74.63 73.77 72.38 73.37 73.63 73.59 72.51 72.97 71.64 72.98 73.64 70.27 71.74 68.45 71.89 65.94 68.15 67.45 66.15 65.89 67.38 67.12 66.58 65.84 66.53 68.13 60.89 59.41 57.88 56.50 55.79 56.33 56.72 57.32 57.94 58.35
69.86 70.08 70.57 70.86 72.14 73.55 74.58 74.74 73.53 73.32 74.42 74.11 73.00 73.04 72.52 72.44 72.60 72.03 70.78 69.29 67.80 68.07 67.40 65.22 65.96 67.80 65.69 67.22 65.54 66.14 66.20 65.98 66.52 60.81 57.62 57.30 56.46 56.80 56.13 55.79 55.45 55.63 55.65
69.75 69.39 70.95 70.71 72.27 73.63 73.98 73.78 73.46 74.12 74.59 73.83 74.39 73.05 71.64 71.75 71.51 70.99 70.43 69.76 69.56 68.12 67.31 67.45 66.41 65.63 64.71 66.85 65.34 63.57 61.62 64.94 64.14 66.20 61.73 61.61 58.28 56.98 56.09 55.59 56.11 56.07 54.74
70.33 69.12 69.91 71.24 72.74 73.47 72.94 73.73 74.16 74.56 74.75 74.06 73.81 72.00 72.65 70.24 65.38 67.82 68.24 69.68 69.42 66.98 65.74 65.96 64.95 65.83 63.66 63.06 63.04 64.12 62.07 63.03 63.05 64.92 64.75 65.08 65.14 63.78 60.80 56.32 58.93 57.46 54.54
70.19 69.45 69.59 70.61 72.13 72.69 59.67 59.73 69.97 74.42 74.20 72.99 72.15 71.62 71.18 64.86 63.10 59.79 58.29 57.49 63.58 68.04 66.51 66.96 65.65 63.43 64.86 64.72 66.32 64.02 61.97 60.23 59.17 63.79 64.28 64.00 66.41 64.57 63.06 63.55 56.86 53.84 52.91
69.92 69.99 70.89 72.06 73.02 74.14 53.51 54.51 58.95 74.67 73.48 72.79 71.32 71.38 69.68 68.74 65.45 67.61 56.79 55.49 55.96 56.12 58.34 67.48 65.82 65.35 62.07 65.64 65.25 64.32 64.45 61.26 63.53 62.55 63.75 60.21 63.44 62.03 63.80 60.83 52.57 51.30 50.94
68.91 69.97 71.75 73.80 73.99 72.98 52.16 53.24 57.06 74.15 73.15 71.58 71.90 70.83 70.05 68.78 67.46 66.58 66.42 65.62 65.85 66.18 65.26 65.31 67.14 67.16 67.24 67.35 65.78 66.10 65.86 64.39 64.14 62.52 64.15 59.14 60.34 59.69 60.62 61.72 51.10 51.30 50.94
68.26 70.16 71.84 72.63 72.76 68.86 50.55 52.82 62.81 72.38 70.87 70.51 70.10 69.89 69.37 68.55 55.99 52.91 66.65 65.77 65.43 63.79 52.85 50.52 50.15 50.35 50.39 51.12 57.88 64.15 63.42 62.27 59.82 60.46 62.01 60.42 59.22 58.04 59.57 58.79 56.05 50.37 48.87
68.30 70.90 71.63 72.27 66.79 69.05 48.56 52.43 63.29 70.05 69.23 68.49 69.25 67.19 52.20 63.41 48.58 50.21 66.48 65.65 62.97 64.21 63.93 62.81 62.55 57.82 55.58 54.80 53.04 64.63 62.78 61.51 60.64 58.59 63.22 60.34 60.03 58.78 56.68 59.69 57.88 54.24 54.00
MSLP
1010.94 1011.02 1011.21 1011.11 1011.06 1011.25 1011.62 1012.08 1011.89 1011.74 1011.87 1012.18 1012.35 1012.38 1012.22 1012.20 1012.10 1012.09 1012.14 1012.74 1012.88 1013.07 1013.51 1013.53 1013.63 1013.64 1013.83 1013.96 1014.13 1014.35 1014.38 1014.45 1014.64 1014.93 1015.09 1015.28 1015.71 1016.06 1016.43 1016.82 1017.19 1017.42 1017.73
1010.33 1010.68 1011.24 1011.27 1011.13 1011.00 1010.93 1011.19 1011.16 1011.38 1011.73 1011.94 1011.72 1011.97 1011.94 1012.01 1012.01 1011.97 1011.97 1011.92 1012.34 1012.55 1012.99 1013.15 1013.20 1013.23 1013.28 1013.59 1013.80 1014.00 1014.10 1014.17 1014.33 1014.58 1014.91 1015.12 1015.42 1015.82 1016.14 1016.55 1016.92 1017.26 1017.61
1010.13 1010.49 1010.64 1010.88 1010.84 1010.83 1010.85 1010.97 1011.22 1011.32 1011.48 1011.65 1011.49 1011.65 1011.41 1011.50 1011.73 1011.79 1011.79 1011.80 1011.51 1012.07 1012.18 1012.42 1012.79 1012.87 1012.82 1013.08 1013.32 1013.59 1013.78 1013.86 1014.01 1014.25 1014.49 1014.95 1015.17 1015.53 1015.87 1016.18 1016.48 1016.82 1017.13
1010.02 1010.31 1010.13 1010.15 1010.21 1010.44 1010.53 1010.62 1010.84 1010.81 1010.38 1010.44 1011.03 1010.82 1010.60 1010.81 1011.06 1011.18 1011.41 1011.38 1011.14 1010.96 1011.66 1011.86 1011.94 1012.29 1012.39 1012.49 1012.91 1013.16 1013.41 1013.54 1013.71 1013.93 1014.23 1014.54 1014.81 1015.12 1015.46 1015.72 1016.14 1016.54 1016.91
1009.56 1009.84 1009.96 1009.81 1009.85 1009.98 1010.09 1009.97 1009.84 1009.59 1009.83 1009.20 1009.58 1009.98 1009.88 1010.27 1010.51 1010.59 1010.89 1010.95 1011.00 1010.89 1010.50 1011.06 1011.66 1011.89 1011.93 1011.89 1012.41 1012.64 1012.98 1013.17 1013.41 1013.58 1013.78 1014.15 1014.47 1014.73 1015.03 1015.38 1015.82 1016.25 1016.73
1009.13 1009.67 1009.36 1009.29 1009.51 1009.63 1009.36 1009.07 1009.54 1009.47 1009.34 1008.91 1009.20 1009.56 1009.50 1009.80 1010.14 1010.28 1010.42 1010.35 1010.32 1010.38 1010.42 1010.96 1011.22 1011.32 1011.56 1011.64 1011.90 1012.14 1012.45 1012.70 1012.99 1013.16 1013.39 1013.71 1014.11 1014.44 1014.70 1015.03 1015.45 1015.94 1016.52
1008.70 1008.99 1009.19 1008.78 1008.95 1009.10 1009.15 1009.22 1009.00 1009.25 1009.46 1008.60 1008.82 1009.19 1009.50 1009.39 1009.67 1009.80 1010.02 1010.02 1009.65 1009.58 1009.58 1010.07 1010.22 1010.17 1010.90 1011.08 1011.32 1011.58 1011.84 1012.14 1012.49 1012.66 1012.94 1013.34 1013.74 1014.07 1014.35 1014.62 1015.01 1015.44 1015.88
1007.53 1008.37 1008.38 1008.00 1007.97 1008.25 1008.76 1008.72 1008.55 1008.22 1008.27 1007.98 1008.30 1008.57 1008.85 1008.42 1008.81 1009.20 1009.69 1009.54 1009.19 1009.37 1009.59 1009.62 1009.66 1009.95 1010.70 1011.11 1010.66 1011.18 1011.42 1011.69 1011.94 1012.24 1012.52 1012.89 1013.30 1013.67 1014.00 1014.21 1014.54 1014.97 1015.45
1006.76 1007.44 1008.02 1008.18 1007.61 1007.75 1007.13 1007.84 1008.09 1007.82 1006.98 1007.41 1007.92 1008.35 1008.38 1008.07 1007.55 1008.19 1008.96 1008.86 1008.81 1009.00 1009.18 1009.46 1009.40 1009.55 1009.90 1009.99 1010.25 1010.66 1010.94 1011.30 1011.54 1011.74 1012.06 1012.44 1012.82 1013.21 1013.64 1013.95 1014.20 1014.56 1015.00
1005.77 1007.02 1007.45 1007.61 1007.23 1006.95 1006.51 1006.72 1007.20 1007.08 1007.38 1007.19 1007.22 1008.17 1008.29 1008.40 1008.26 1007.86 1008.17 1008.40 1008.81 1008.99 1008.89 1009.29 1009.42 1009.45 1009.68 1010.01 1009.82 1010.11 1010.64 1011.13 1011.30 1011.50 1011.76 1012.04 1012.39 1012.76 1013.24 1013.66 1013.96 1014.27 1014.68
1005.21 1006.28 1006.69 1006.97 1006.74 1006.64 1006.33 1005.94 1006.09 1006.88 1006.71 1007.38 1006.85 1007.28 1008.22 1008.32 1008.58 1008.47 1008.13 1007.89 1007.94 1008.25 1008.62 1008.75 1009.04 1009.29 1009.25 1009.51 1009.72 1009.94 1010.35 1010.70 1011.05 1011.30 1011.53 1011.73 1011.99 1012.28 1012.81 1013.34 1013.74 1013.99 1014.28
1004.33 1004.19 1006.16 1006.59 1005.03 1006.21 1005.77 1005.52 1005.64 1005.46 1005.14 1006.47 1007.14 1006.92 1007.20 1007.40 1007.49 1007.93 1007.81 1007.35 1007.24 1007.22 1007.88 1008.11 1008.62 1008.93 1008.79 1009.31 1009.57 1009.95 1010.52 1010.75 1010.81 1011.06 1011.36 1011.54 1011.75 1012.01 1012.47 1012.94 1013.27 1013.55 1013.82
1003.20 1003.29 1004.87 1004.51 1004.31 1005.22 1004.87 1004.78 1005.06 1004.84 1004.88 1005.82 1006.42 1006.72 1006.73 1006.62 1006.79 1006.52 1006.55 1006.76 1006.49 1006.66 1007.29 1007.59 1007.95 1008.41 1008.38 1008.94 1009.21 1009.57 1010.26 1010.65 1010.81 1010.93 1011.16 1011.39 1011.56 1011.79 1012.13 1012.49 1012.85 1013.15 1013.50
1002.99 1002.37 1002.67 1003.40 1003.53 1003.86 1004.12 1004.14 1004.21 1004.06 1004.72 1005.51 1005.56 1006.34 1006.32 1006.20 1006.04 1006.17 1006.25 1006.49 1006.42 1006.06 1006.44 1006.81 1007.50 1007.86 1008.42 1009.04 1009.58 1009.80 1009.88 1010.40 1010.56 1010.75 1011.00 1011.20 1011.38 1011.57 1011.79 1012.16 1012.54 1012.87 1013.28
1002.76 1002.62 1001.93 1002.04 1002.63 1002.80 1002.90 1003.27 1003.23 1003.54 1003.91 1005.11 1004.93 1005.74 1006.10 1005.72 1005.89 1006.18 1006.15 1006.39 1006.05 1005.90 1005.99 1006.88 1007.17 1007.73 1008.03 1008.70 1009.07 1009.32 1009.44 1010.02 1010.29 1010.58 1010.90 1011.08 1011.17 1011.35 1011.58 1011.96 1012.29 1012.72 1013.11
1002.67 1002.09 1001.93 1001.79 1001.89 1001.88 1002.15 1002.34 1002.69 1003.11 1003.52 1004.36 1004.34 1004.90 1005.38 1005.45 1005.64 1005.90 1006.14 1006.36 1006.21 1006.24 1006.08 1006.62 1007.02 1007.71 1008.19 1008.70 1009.55 1009.47 1009.57 1009.88 1010.09 1010.37 1010.67 1010.88 1011.01 1011.18 1011.44 1011.81 1012.14 1012.55 1013.01
1002.11 1002.02 1001.85 1001.17 1001.22 1001.11 1001.05 1001.56 1002.06 1002.54 1003.02 1003.48 1003.57 1004.06 1004.68 1005.02 1005.08 1005.67 1006.01 1006.11 1006.12 1006.18 1006.52 1006.38 1007.19 1008.27 1008.72 1009.05 1009.38 1009.63 1009.59 1009.23 1009.49 1010.14 1010.40 1010.62 1010.77 1011.01 1011.33 1011.68 1012.05 1012.45 1012.83
1000.86 1000.85 1000.68 1000.66 1000.40 1000.32 1000.47 1000.97 1001.41 1001.35 1002.12 1002.49 1002.86 1003.61 1004.13 1004.58 1005.17 1005.17 1005.51 1005.74 1005.97 1006.21 1006.47 1006.38 1007.15 1008.05 1008.78 1009.08 1009.45 1009.78 1009.79 1009.20 1009.14 1009.87 1010.21 1010.49 1010.66 1010.96 1011.28 1011.64 1011.99 1012.36 1012.80
999.76 999.70 999.18 999.04 999.14 999.34 999.50 1000.18 1000.35 1000.73 1001.15 1001.54 1002.22 1003.14 1003.57 1004.20 1004.59 1005.05 1005.55 1005.43 1006.00 1006.34 1006.43 1006.75 1007.47 1008.03 1008.42 1008.91 1009.46 1009.70 1009.63 1009.72 1009.50 1010.01 1010.26 1010.42 1010.64 1010.95 1011.25 1011.53 1011.87 1012.10 1012.56
998.67 998.40 997.86 997.78 997.71 998.16 998.47 999.00 999.31 1000.15 1000.38 1000.80 1001.77 1002.58 1003.13 1003.81 1004.01 1004.60 1005.56 1005.64 1005.96 1006.14 1006.38 1006.91 1007.30 1007.87 1008.33 1008.67 1009.16 1009.28 1009.75 1009.59 1009.53 1009.40 1009.93 1009.86 1010.64 1010.99 1011.26 1011.44 1011.65 1011.96 1012.44
997.56 997.35 996.73 996.88 996.82 996.79 997.02 997.80 998.59 999.04 999.77 1000.70 1001.48 1002.21 1002.95 1003.32 1003.79 1004.63 1004.85 1005.45 1005.71 1006.03 1006.46 1006.98 1007.30 1007.76 1007.92 1008.33 1008.74 1008.98 1009.07 1009.49 1009.84 1009.93 1009.87 1010.06 1010.40 1010.83 1011.28 1011.60 1011.81 1012.04 1012.39
996.76 996.30 995.82 995.85 996.13 996.12 996.52 997.54 997.96 998.34 999.69 1000.43 1001.19 1002.00 1002.55 1003.41 1003.97 1004.57 1005.18 1005.78 1005.85 1006.19 1006.64 1006.89 1007.18 1007.47 1007.68 1007.93 1008.43 1008.63 1008.83 1009.33 1009.60 1010.04 1010.01 1010.16 1010.34 1010.80 1011.16 1011.30 1011.68 1012.17 1012.55
995.71 995.16 995.11 995.08 995.20 996.00 996.58 997.56 997.79 998.38 999.43 1000.06 1000.93 1001.69 1002.31 1002.92 1003.83 1004.55 1005.36 1005.83 1006.23 1006.52 1006.76 1006.90 1007.07 1007.27 1007.52 1007.32 1008.07 1008.46 1008.50 1008.86 1008.56 1009.78 1010.01 1010.55 1010.83 1011.08 1011.15 1011.38 1011.80 1012.18 1012.66
994.54 994.15 994.01 993.99 994.40 995.80 996.64 997.19 998.09 998.45 999.17 999.83 1000.69 1001.54 1002.08 1002.64 1003.57 1004.17 1004.73 1005.37 1005.68 1006.04 1006.59 1006.78 1006.82 1007.14 1007.35 1007.49 1007.91 1008.13 1008.31 1008.70 1009.01 1009.89 1010.05 1010.46 1011.16 1011.39 1011.64 1011.74 1012.14 1012.40 1012.83
993.67 993.36 993.50 993.59 994.26 996.02 996.71 997.33 998.02 998.36 998.95 999.78 1000.67 1001.40 1001.86 1002.26 1003.26 1004.18 1004.45 1004.98 1005.47 1006.24 1006.76 1007.03 1007.26 1007.55 1007.67 1007.67 1007.90 1008.28 1008.41 1008.80 1009.20 1009.76 1010.20 1010.18 1011.11 1011.55 1011.85 1012.20 1012.53 1012.87 1013.18
992.59 992.49 992.53 993.05 994.04 995.68 997.12 997.33 997.45 997.83 999.03 999.72 1000.45 1001.52 1002.09 1002.26 1003.51 1004.23 1004.68 1005.03 1005.54 1006.00 1006.44 1007.11 1007.51 1007.88 1008.03 1008.11 1008.25 1008.37 1008.51 1008.62 1008.97 1009.63 1009.56 1010.08 1010.67 1011.23 1011.76 1012.09 1012.46 1012.90 1013.34
Wind_Speed
7 7 6 7 6 7 8 7 8 7 9 10 9 11 11 10 10 6 7 12 11 11 12 12 13 13 12 12 11 10 11 12 13 12 12 12 11 10 11 13 13 13 13
7 8 7 7 7 7 6 7 8 8 7 8 8 10 10 10 10 8 7 7 15 14 14 15 14 14 12 13 12 12 11 11 13 13 12 12 12 12 13 14 14 15 16
8 9 9 8 8 7 6 7 7 6 6 8 8 9 8 9 9 10 8 9 8 15 16 17 16 15 13 13 14 13 12 12 13 13 13 12 12 12 14 15 14 14 11
11 10 9 10 9 7 9 9 9 9 9 7 7 8 6 7 9 8 10 8 9 8 14 17 17 16 15 14 15 15 13 12 12 12 13 12 13 12 14 16 13 13 12
14 11 10 9 9 9 8 9 10 9 7 6 7 6 6 7 7 8 9 8 9 10 5 15 16 14 15 13 16 16 15 13 12 12 14 13 13 12 15 15 13 11 13
12 11 12 10 10 10 10 11 8 10 8 5 6 7 5 5 6 7 9 8 10 11 10 8 9 11 13 12 16 16 15 14 14 13 14 13 13 12 14 13 14 12 13
15 14 12 11 12 12 11 10 10 9 9 6 5 7 8 7 8 8 7 8 10 9 7 5 1 7 7 15 15 15 15 15 14 14 14 13 14 13 14 13 13 16 19
12 13 13 12 14 12 13 12 11 10 10 6 5 5 7 6 7 9 8 9 10 3 5 7 7 6 7 6 11 14 14 16 15 14 13 13 14 14 14 13 13 16 17
12 15 14 13 13 14 12 13 12 12 9 8 9 5 4 6 4 8 12 9 5 4 6 4 7 5 5 7 5 12 13 13 15 14 12 14 15 15 14 14 13 13 14
15 16 17 16 16 12 14 11 11 10 8 9 8 8 9 6 4 5 4 6 7 5 6 7 3 4 6 3 10 4 11 11 14 14 12 14 16 17 15 14 15 14 15
13 14 16 17 15 13 12 12 9 7 6 9 8 8 7 9 10 8 9 5 7 8 8 8 7 4 6 6 1 5 11 12 11 10 11 11 15 16 16 15 15 15 15
8 9 19 19 17 15 13 12 10 12 11 9 9 6 9 8 8 7 8 11 8 8 7 4 5 5 7 5 6 11 6 7 7 7 9 10 13 14 15 16 17 16 17
12 14 20 18 16 16 13 11 13 11 9 11 10 9 9 7 8 9 5 7 9 5 4 4 4 4 2 3 5 6 9 8 7 8 9 9 9 12 13 16 15 15 16
13 13 14 18 17 16 14 13 11 11 11 11 12 10 9 8 8 6 10 8 10 7 5 6 6 4 4 2 7 5 7 10 8 8 8 8 8 10 12 13 13 12 12
12 15 13 13 15 16 16 15 12 11 10 11 9 10 11 7 6 6 3 11 8 9 6 5 2 3 2 5 3 5 7 11 9 8 8 8 8 9 11 11 11 11 11
14 15 15 14 14 15 17 14 12 11 11 10 9 12 11 10 6 7 5 4 8 8 7 4 4 6 4 1 2 5 3 8 9 9 8 8 9 10 11 11 10 11 13
14 16 17 14 15 16 14 13 12 13 14 13 12 12 13 12 9 6 4 9 8 7 2 1 6 6 4 3 3 4 5 7 7 9 9 8 9 9 9 10 10 12 14
14 16 16 16 16 15 14 15 16 15 15 15 13 11 14 10 11 7 5 7 8 2 6 4 3 5 4 6 6 6 3 5 3 8 7 5 6 6 6 7 9 12 15
16 17 17 17 18 18 18 18 17 16 15 14 13 13 13 13 11 7 9 7 8 6 6 7 5 4 5 6 3 4 2 1 2 7 6 6 6 7 7 9 11 14 16
18 17 17 18 18 18 18 19 18 16 14 13 13 13 13 14 12 10 9 7 6 5 5 1 3 5 5 6 5 5 3 3 1 2 4 6 6 5 5 9 12 14 14
18 18 18 18 18 17 15 18 17 15 13 13 13 13 12 11 10 11 8 8 8 7 4 5 5 5 6 6 7 5 5 4 2 1 4 5 6 4 3 5 8 14 14
20 18 18 19 19 14 17 17 15 13 14 14 12 13 9 10 9 9 9 10 1 6 8 5 3 5 8 6 3 6 5 5 3 1 4 4 3 4 4 5 9 12 14
18 18 19 19 19 19 20 18 14 13 14 13 12 11 11 10 10 10 7 6 6 7 3 5 7 6 4 8 6 6 7 8 4 6 3 2 1 3 1 4 10 10 11
18 17 19 20 18 13 18 19 17 15 12 12 12 13 11 10 12 11 11 9 9 9 8 6 7 5 4 5 8 6 6 3 6 5 3 3 1 2 1 3 7 12 10
17 18 18 19 19 14 16 20 18 15 11 13 13 13 11 11 13 6 9 8 7 6 7 9 10 7 2 1 3 4 4 6 4 3 2 3 3 2 1 1 3 5 9
18 15 17 18 17 16 14 21 16 12 13 12 11 9 11 5 13 11 9 8 5 7 6 5 5 5 4 4 8 5 5 5 4 3 3 4 5 4 2 1 3 4 4
Wind_Direction
221 201 232 236 205 207 200 224 233 238 234 234 253 262 263 272 274 272 290 159 173 190 220 231 236 239 230 224 219 218 214 207 208 212 207 201 205 195 191 190 191 186 187
202 209 208 214 240 228 231 229 225 236 225 239 244 249 260 272 269 264 261 232 190 192 210 227 233 240 234 222 220 215 214 213 211 207 212 207 202 203 203 203 206 204 203
228 206 207 212 221 226 232 242 258 232 243 245 245 257 263 253 254 261 252 259 219 204 205 212 225 237 242 226 218 216 210 217 214 213 209 211 210 208 209 211 213 208 214
224 197 216 205 218 218 217 224 223 228 212 207 246 249 247 243 251 243 250 253 258 247 206 215 209 220 236 225 219 221 214 215 213 209 209 209 214 210 209 211 213 207 208
209 221 223 212 210 214 223 223 223 222 220 196 221 242 228 248 261 250 247 244 245 273 257 198 205 215 230 218 215 222 219 211 211 214 210 208 212 212 208 213 206 195 188
217 209 218 220 202 222 220 224 222 228 245 184 229 255 241 242 251 244 250 235 238 228 235 165 190 211 218 223 218 223 225 213 210 212 209 205 204 205 207 208 199 196 170
210 207 223 211 206 223 229 221 217 232 230 192 231 254 258 215 219 247 252 242 233 219 221 211 158 272 201 213 214 219 222 225 217 215 205 198 196 202 207 213 208 193 193
218 226 221 225 209 214 221 223 220 219 218 196 220 253 269 255 209 212 241 249 241 227 185 210 242 204 180 231 215 218 217 228 223 216 205 199 198 202 205 212 214 198 198
217 225 224 236 225 223 209 212 218 219 221 193 202 215 249 240 278 177 208 238 256 210 260 192 181 207 236 245 168 188 201 211 222 217 207 199 203 202 201 204 212 205 198
209 223 233 227 238 224 226 197 214 226 229 244 188 205 249 288 291 260 191 192 235 248 252 276 148 211 244 216 243 78 173 203 218 225 213 203 205 208 201 199 204 209 197
200 218 235 233 237 234 224 241 191 180 225 254 237 191 226 244 244 266 280 222 196 222 226 198 245 212 192 220 279 201 176 189 211 220 208 208 208 208 201 198 201 205 204
206 195 239 240 222 226 229 201 211 185 191 233 245 228 226 217 224 227 236 253 224 214 203 195 149 234 245 162 196 118 154 185 201 204 212 211 208 208 200 200 204 208 213
232 200 213 229 224 222 216 220 209 216 188 216 211 231 226 234 223 247 256 262 262 157 177 209 170 214 212 264 107 151 166 192 205 207 211 209 211 208 198 197 202 208 212
256 259 203 211 219 218 219 223 216 204 199 206 209 211 245 226 253 247 262 255 254 255 171 201 189 173 154 107 103 150 186 187 191 204 205 202 206 207 196 192 196 201 203
261 273 249 209 214 215 220 211 214 200 193 208 194 215 227 228 214 243 247 237 261 273 226 177 206 172 147 167 146 222 238 177 186 192 206 211 204 203 194 194 193 188 177
275 276 270 226 212 218 222 203 206 199 191 200 201 201 213 235 195 230 240 262 263 264 288 165 187 147 140 207 96 259 113 164 183 192 201 207 202 206 193 193 186 175 169
245 248 250 246 227 219 208 199 205 197 196 203 199 194 204 223 207 185 221 232 242 246 272 135 145 121 137 206 233 255 269 246 183 195 202 204 202 207 194 193 185 177 169
255 248 236 236 230 220 207 200 203 199 198 199 195 202 202 207 218 202 220 227 241 195 249 243 148 149 207 203 213 217 240 294 236 175 186 195 194 211 180 182 179 173 165
259 251 241 227 215 219 203 202 201 210 192 197 184 205 204 202 198 191 235 213 213 243 222 250 185 212 181 178 163 202 196 260 102 134 141 151 160 179 168 169 176 171 170
260 247 237 232 222 211 206 199 200 205 186 190 192 197 203 205 193 195 213 223 225 224 228 335 170 179 198 172 213 189 197 189 156 111 86 134 145 145 154 167 165 163 162
263 244 239 224 224 212 202 196 198 192 178 189 184 194 203 203 181 203 210 201 222 225 209 229 198 209 192 200 206 195 190 188 86 299 172 165 167 162 146 161 170 167 161
258 240 235 223 219 212 186 176 191 173 183 181 180 192 170 124 121 114 103 65 40 206 225 230 214 208 204 208 207 188 179 180 192 217 184 125 181 171 178 184 163 157 155
253 233 232 227 210 204 160 164 153 170 177 176 176 185 178 180 173 189 119 122 128 116 117 257 245 231 232 201 198 206 186 199 219 135 166 98 47 96 26 122 147 150 151
244 230 224 218 201 176 161 146 156 167 172 171 177 182 193 165 184 193 189 204 218 207 211 230 241 273 265 182 197 204 196 97 90 131 189 122 86 89 49 74 146 156 161
233 223 218 202 191 155 156 148 165 163 164 172 177 187 195 184 162 170 198 197 211 142 86 78 67 50 122 96 158 166 171 174 157 165 197 125 125 90 101 120 124 158 169
232 212 205 195 171 159 169 156 175 161 159 172 175 143 69 189 145 159 208 193 193 175 173 181 146 127 137 132 157 178 178 199 157 153 190 160 154 149 136 140 150 151 180